This is the latest recevied weather packets stored in our database for station/object KN4MGS. If no packets are shown the sender has not sent any weather packets the latest 10 day(s).
| Time | Temp. | Humidity | Pressure | Rain* | Wind** | Luminosity | Snow |
|---|---|---|---|---|---|---|---|
| 1778032739 | 16.67° C | 77% | 1017.9 hPa | 0 mm | - | 0 W/m² | - |
| 1778032437 | 16.67° C | 75% | 1017.8 hPa | 0 mm | - | 0 W/m² | - |
| 1778032134 | 16.67° C | 75% | 1017.9 hPa | 0 mm | - | 0 W/m² | - |
| 1778031830 | 16.67° C | 74% | 1018 hPa | 0 mm | - | 0 W/m² | - |
| 1778031527 | 17.22° C | 73% | 1017.8 hPa | 0 mm | - | 0 W/m² | - |
| 1778031225 | 17.22° C | 73% | 1017.9 hPa | 0 mm | - | 0 W/m² | - |
| 1778030921 | 17.78° C | 71% | 1017.6 hPa | 0 mm | - | 0 W/m² | - |
| 1778030618 | 17.78° C | 71% | 1017.6 hPa | 0 mm | - | 0 W/m² | - |
| 1778030315 | 17.78° C | 69% | 1017.4 hPa | 0 mm | - | 0 W/m² | - |
| 1778030011 | 18.33° C | 69% | 1017.3 hPa | 0 mm | - | 0 W/m² | - |
| 1778029709 | 18.89° C | 68% | 1017.4 hPa | 0 mm | - | 0 W/m² | - |
| 1778029407 | 18.89° C | 67% | 1017.3 hPa | 0 mm | - | 0 W/m² | - |
| 1778029104 | 18.89° C | 66% | 1017.4 hPa | 0 mm | - | 0 W/m² | - |
| 1778028801 | 19.44° C | 66% | 1017.4 hPa | 0 mm | - | 0 W/m² | - |
| 1778028496 | 20° C | 63% | 1017.3 hPa | 0 mm | - | 0 W/m² | - |
| 1778028194 | 20° C | 63% | 1017.2 hPa | 0 mm | - | 0 W/m² | - |
| 1778027890 | 20.56° C | 61% | 1017.1 hPa | 0 mm | - | 0 W/m² | - |
| 1778027587 | 20.56° C | 59% | 1016.7 hPa | 0 mm | - | 0 W/m² | - |
| 1778027283 | 21.11° C | 57% | 1017.1 hPa | 0 mm | - | 0 W/m² | - |
| 1778026979 | 21.67° C | 55% | 1017.1 hPa | 0 mm | - | 0 W/m² | - |
| 1778026675 | 22.22° C | 53% | 1017.1 hPa | 0 mm | - | 0 W/m² | - |
| 1778026373 | 23.33° C | 51% | 1017.2 hPa | 0 mm | - | 3 W/m² | - |
| 1778026069 | 23.33° C | 50% | 1017 hPa | 0 mm | - | 4 W/m² | - |
| 1778025767 | 23.89° C | 48% | 1017.1 hPa | 0 mm | - | 7 W/m² | - |
| 1778025464 | 23.89° C | 48% | 1016.9 hPa | 0 mm | - | 10 W/m² | - |
* Rain latest hour (hover to see other rain measurements)
** Current wind speed in m/s (hover to see current wind gust speed)